| time (UTC) | temp F | wind direction | speed MPH | gust MPH | rain 1hr in | rain 24hr in | rain mn in | humidity % | barometer mb |
| 20260902170740 | 68 | 216 | 5.0 | 11.0 | 0.00 | 0.00 | 0.00 | 76 | 1019.9 |
| 20260902170239 | 68 | 224 | 5.0 | 11.0 | 0.00 | 0.00 | 0.00 | 76 | 1020.0 |
| 20260902165742 | 69 | 216 | 6.0 | 12.0 | 0.00 | 0.00 | 0.00 | 76 | 1020.0 |
| 20260902165242 | 69 | 251 | 5.0 | 12.0 | 0.00 | 0.00 | 0.00 | 76 | 1020.0 |
| 20260902164741 | 69 | 202 | 4.0 | 9.0 | 0.00 | 0.00 | 0.00 | 76 | 1020.0 |
| 20260902164241 | 69 | 199 | 4.0 | 9.0 | 0.00 | 0.00 | 0.00 | 76 | 1020.0 |
| 20260902163739 | 69 | 185 | 5.0 | 9.0 | 0.00 | 0.00 | 0.00 | 76 | 1020.0 |
| 20260902163241 | 69 | 218 | 5.0 | 11.0 | 0.00 | 0.00 | 0.00 | 76 | 1020.0 |
| 20260902162740 | 69 | 229 | 4.0 | 11.0 | 0.00 | 0.00 | 0.00 | 76 | 1020.1 |
| 20260902162240 | 69 | 222 | 4.0 | 9.0 | 0.00 | 0.00 | 0.00 | 76 | 1020.1 |
| 20260902161741 | 69 | 204 | 5.0 | 10.0 | 0.00 | 0.00 | 0.00 | 76 | 1020.2 |
| 20260902161240 | 69 | 216 | 6.0 | 14.0 | 0.00 | 0.00 | 0.00 | 75 | 1020.1 |
| 20260902161211 | 69 | 230 | 6.0 | 14.0 | 0.00 | 0.00 | 0.00 | 75 | 1020.1 |
| 20260902160235 | 69 | 229 | 6.0 | 12.0 | 0.00 | 0.00 | 0.00 | 76 | 1020.3 |
| 20260902155735 | 69 | 173 | 7.0 | 12.0 | 0.00 | 0.00 | 0.00 | 76 | 1020.4 |
| 20260902155237 | 69 | 216 | 7.0 | 13.0 | 0.00 | 0.00 | 0.00 | 76 | 1020.4 |
| 20260902154735 | 69 | 228 | 6.0 | 13.0 | 0.00 | 0.00 | 0.00 | 77 | 1020.4 |
| 20260902154237 | 69 | 236 | 6.0 | 12.0 | 0.00 | 0.00 | 0.00 | 77 | 1020.5 |
| 20260902154219 | 69 | 259 | 6.0 | 11.0 | 0.00 | 0.00 | 0.00 | 77 | 1020.5 |
| 20260902153944 | 69 | 229 | 6.0 | 12.0 | 0.00 | 0.00 | 0.00 | 77 | 1020.5 |
| 20260902152731 | 69 | 220 | 7.0 | 13.0 | 0.00 | 0.00 | 0.00 | 76 | 1020.5 |
| 20260902152233 | 69 | 238 | 7.0 | 14.0 | 0.00 | 0.00 | 0.00 | 75 | 1020.5 |
| 20260902151734 | 69 | 223 | 7.0 | 15.0 | 0.00 | 0.00 | 0.00 | 75 | 1020.5 |
| 20260902151231 | 69 | 248 | 9.0 | 17.0 | 0.00 | 0.00 | 0.00 | 74 | 1020.6 |
| 20260902150734 | 69 | 190 | 8.0 | 17.0 | 0.00 | 0.00 | 0.00 | 74 | 1020.6 |
| 20260902150729 | 69 | 268 | 7.0 | 16.0 | 0.00 | 0.00 | 0.00 | 74 | 1020.6 |
| 20260902150445 | 69 | 270 | 7.0 | 16.0 | 0.00 | 0.00 | 0.00 | 73 | 1020.7 |
| 20260902145236 | 69 | 247 | 6.0 | 12.0 | 0.00 | 0.00 | 0.00 | 75 | 1020.6 |
| 20260902144735 | 69 | 233 | 7.0 | 15.0 | 0.00 | 0.00 | 0.00 | 75 | 1020.7 |
| 20260902144230 | 69 | 224 | 7.0 | 15.0 | 0.00 | 0.00 | 0.00 | 73 | 1020.7 |
| 20260902143732 | 69 | 245 | 9.0 | 19.0 | 0.00 | 0.00 | 0.00 | 73 | 1020.7 |
| 20260902143232 | 70 | 216 | 10.0 | 19.0 | 0.00 | 0.00 | 0.00 | 74 | 1020.7 |
| 20260902142731 | 70 | 241 | 8.0 | 16.0 | 0.00 | 0.00 | 0.00 | 74 | 1020.6 |
| 20260902142232 | 70 | 266 | 8.0 | 16.0 | 0.00 | 0.00 | 0.00 | 74 | 1020.6 |
| 20260902142207 | 70 | 246 | 9.0 | 16.0 | 0.00 | 0.00 | 0.00 | 72 | 1020.7 |
| 20260902141246 | 70 | 265 | 9.0 | 18.0 | 0.00 | 0.00 | 0.00 | 71 | 1020.6 |
| 20260902141234 | 70 | 184 | 8.0 | 16.0 | 0.00 | 0.00 | 0.00 | 72 | 1020.6 |
| 20260902140233 | 71 | 229 | 8.0 | 18.0 | 0.00 | 0.00 | 0.00 | 70 | 1020.6 |
| 20260902135732 | 71 | 212 | 8.0 | 17.0 | 0.00 | 0.00 | 0.00 | 71 | 1020.5 |
| 20260902135232 | 71 | 266 | 8.0 | 17.0 | 0.00 | 0.00 | 0.00 | 70 | 1020.6 |
| 20260902134732 | 71 | 239 | 7.0 | 15.0 | 0.00 | 0.00 | 0.00 | 71 | 1020.6 |
| 20260902134234 | 71 | 204 | 8.0 | 17.0 | 0.00 | 0.00 | 0.00 | 70 | 1020.5 |
| 20260902133731 | 71 | 229 | 9.0 | 17.0 | 0.00 | 0.00 | 0.00 | 69 | 1020.6 |
| 20260902133234 | 72 | 191 | 9.0 | 16.0 | 0.00 | 0.00 | 0.00 | 68 | 1020.6 |
| 20260902132730 | 72 | 245 | 10.0 | 19.0 | 0.00 | 0.00 | 0.00 | 67 | 1020.6 |
| 20260902132236 | 72 | 233 | 9.0 | 19.0 | 0.00 | 0.00 | 0.00 | 67 | 1020.6 |
| 20260902131733 | 72 | 208 | 7.0 | 17.0 | 0.00 | 0.00 | 0.00 | 69 | 1020.6 |
| 20260902131231 | 71 | 228 | 8.0 | 17.0 | 0.00 | 0.00 | 0.00 | 68 | 1020.6 |
| 20260902131151 | 72 | 229 | 9.0 | 18.0 | 0.00 | 0.00 | 0.00 | 67 | 1020.5 |
| 20260902130931 | 71 | 232 | 10.0 | 17.0 | 0.00 | 0.00 | 0.00 | 67 | 1020.6 |
| 20260902125939 | 71 | 280 | 8.0 | 18.0 | 0.00 | 0.00 | 0.00 | 69 | 1020.5 |
| 20260902124735 | 70 | 187 | 7.0 | 15.0 | 0.00 | 0.00 | 0.00 | 75 | 1020.6 |
| 20260902124231 | 69 | 208 | 8.0 | 14.0 | 0.00 | 0.00 | 0.00 | 75 | 1020.5 |
| 20260902124216 | 69 | 251 | 7.0 | 14.0 | 0.00 | 0.00 | 0.00 | 76 | 1020.7 |
| 20260902123234 | 69 | 233 | 4.0 | 11.0 | 0.00 | 0.00 | 0.00 | 80 | 1020.6 |
| 20260902122731 | 69 | 235 | 4.0 | 10.0 | 0.00 | 0.00 | 0.00 | 83 | 1020.6 |
| 20260902122720 | 68 | 225 | 5.0 | 10.0 | 0.00 | 0.00 | 0.00 | 83 | 1020.6 |
| 20260902121731 | 67 | 221 | 3.0 | 8.0 | 0.00 | 0.00 | 0.00 | 85 | 1020.6 |
| 20260902121232 | 67 | 241 | 3.0 | 8.0 | 0.00 | 0.00 | 0.00 | 85 | 1020.7 |
| 20260902120731 | 67 | 233 | 3.0 | 8.0 | 0.00 | 0.00 | 0.00 | 85 | 1020.7 |
| 20260902120231 | 67 | 235 | 3.0 | 8.0 | 0.00 | 0.00 | 0.00 | 84 | 1020.8 |
| 20260902115731 | 67 | 222 | 4.0 | 12.0 | 0.00 | 0.00 | 0.00 | 84 | 1020.8 |
| 20260902115232 | 67 | 202 | 6.0 | 12.0 | 0.00 | 0.00 | 0.00 | 83 | 1020.9 |
| 20260902114735 | 68 | 231 | 6.0 | 14.0 | 0.00 | 0.00 | 0.00 | 81 | 1021.0 |
| 20260902114724 | 68 | 233 | 6.0 | 14.0 | 0.00 | 0.00 | 0.00 | 81 | 1020.9 |
| 20260902113731 | 68 | 198 | 7.0 | 13.0 | 0.00 | 0.00 | 0.00 | 81 | 1020.9 |
| 20260902113231 | 68 | 261 | 6.0 | 13.0 | 0.00 | 0.00 | 0.00 | 81 | 1020.9 |
| 20260902112733 | 68 | 239 | 6.0 | 11.0 | 0.00 | 0.00 | 0.00 | 82 | 1020.9 |
| 20260902112230 | 68 | 185 | 6.0 | 11.0 | 0.00 | 0.00 | 0.00 | 82 | 1020.9 |
| 20260902111734 | 68 | 244 | 6.0 | 14.0 | 0.00 | 0.00 | 0.00 | 81 | 1021.0 |
| 20260902111232 | 68 | 248 | 6.0 | 14.0 | 0.00 | 0.00 | 0.00 | 81 | 1021.0 |
| 20260902110751 | 69 | 231 | 9.0 | 17.0 | 0.00 | 0.00 | 0.00 | 81 | 1020.9 |
| 20260902110735 | 68 | 238 | 7.0 | 15.0 | 0.00 | 0.00 | 0.00 | 81 | 1021.0 |
| 20260902110217 | 70 | 247 | 5.0 | 11.0 | 0.00 | 0.00 | 0.00 | 80 | 1020.9 |
| 20260902110209 | 70 | 181 | 6.0 | 16.0 | 0.00 | 0.00 | 0.00 | 79 | 1020.9 |
| 20260902105935 | 69 | 191 | 8.0 | 17.0 | 0.00 | 0.00 | 0.00 | 80 | 1020.9 |
| 20260902104232 | 70 | 229 | 5.0 | 11.0 | 0.00 | 0.00 | 0.00 | 80 | 1020.9 |
| 20260902103733 | 70 | 187 | 6.0 | 10.0 | 0.00 | 0.00 | 0.00 | 81 | 1020.8 |
| 20260902103231 | 70 | 261 | 5.0 | 11.0 | 0.00 | 0.00 | 0.00 | 81 | 1020.8 |
| 20260902102730 | 70 | 182 | 5.0 | 11.0 | 0.00 | 0.00 | 0.00 | 82 | 1020.8 |
| 20260902102230 | 70 | 196 | 5.0 | 10.0 | 0.00 | 0.00 | 0.00 | 82 | 1020.9 |
| 20260902102210 | 71 | 201 | 4.0 | 9.0 | 0.00 | 0.00 | 0.00 | 83 | 1020.9 |
| 20260902101232 | 69 | 216 | 5.0 | 12.0 | 0.00 | 0.00 | 0.00 | 83 | 1020.9 |
| 20260902100731 | 69 | 238 | 6.0 | 13.0 | 0.00 | 0.00 | 0.00 | 83 | 1021.0 |
| 20260902100231 | 68 | 214 | 5.0 | 13.0 | 0.00 | 0.00 | 0.00 | 85 | 1021.0 |
| 20260902095732 | 68 | 225 | 5.0 | 11.0 | 0.00 | 0.00 | 0.00 | 86 | 1020.9 |
| 20260902095233 | 67 | 190 | 5.0 | 10.0 | 0.00 | 0.00 | 0.00 | 87 | 1020.9 |
| 20260902094732 | 67 | 177 | 5.0 | 11.0 | 0.00 | 0.00 | 0.00 | 86 | 1020.9 |
| 20260902094233 | 67 | 192 | 5.0 | 11.0 | 0.00 | 0.00 | 0.00 | 87 | 1021.0 |
| 20260902093730 | 67 | 210 | 6.0 | 12.0 | 0.00 | 0.00 | 0.00 | 87 | 1021.0 |
| 20260902093232 | 67 | 234 | 5.0 | 12.0 | 0.00 | 0.00 | 0.00 | 87 | 1021.0 |
| 20260902093214 | 66 | 180 | 4.0 | 12.0 | 0.00 | 0.00 | 0.00 | 88 | 1020.9 |
| 20260902092231 | 66 | 182 | 5.0 | 12.0 | 0.00 | 0.00 | 0.00 | 89 | 1021.0 |
| 20260902091730 | 65 | 208 | 5.0 | 12.0 | 0.00 | 0.00 | 0.00 | 89 | 1020.9 |
| 20260902091717 | 65 | 241 | 5.0 | 12.0 | 0.00 | 0.00 | 0.00 | 89 | 1021.0 |
| 20260902090731 | 65 | 203 | 5.0 | 10.0 | 0.00 | 0.00 | 0.00 | 89 | 1021.0 |
| 20260902090234 | 65 | 210 | 4.0 | 10.0 | 0.00 | 0.00 | 0.00 | 89 | 1021.0 |
| 20260902085733 | 65 | 246 | 6.0 | 12.0 | 0.00 | 0.00 | 0.00 | 89 | 1020.9 |
| 20260902085229 | 65 | 251 | 5.0 | 12.0 | 0.00 | 0.00 | 0.00 | 89 | 1020.8 |
| 20260902084732 | 65 | 222 | 4.0 | 11.0 | 0.00 | 0.00 | 0.00 | 90 | 1020.8 |
| 20260902084232 | 65 | 254 | 4.0 | 9.0 | 0.00 | 0.00 | 0.00 | 90 | 1020.8 |
| 20260902083730 | 64 | 239 | 4.0 | 10.0 | 0.00 | 0.00 | 0.00 | 90 | 1020.7 |
| 20260902083231 | 64 | 228 | 5.0 | 10.0 | 0.00 | 0.00 | 0.00 | 90 | 1020.7 |
| 20260902082730 | 64 | 193 | 5.0 | 10.0 | 0.00 | 0.00 | 0.00 | 90 | 1020.6 |
| 20260902082236 | 64 | 208 | 4.0 | 9.0 | 0.00 | 0.00 | 0.00 | 90 | 1020.5 |
| 20260902081730 | 64 | 198 | 4.0 | 9.0 | 0.00 | 0.00 | 0.00 | 91 | 1020.4 |
| 20260902081230 | 63 | 221 | 3.0 | 8.0 | 0.00 | 0.00 | 0.00 | 91 | 1020.4 |
| 20260902080732 | 63 | 197 | 4.0 | 9.0 | 0.00 | 0.00 | 0.00 | 91 | 1020.4 |
| 20260902080232 | 63 | 233 | 4.0 | 9.0 | 0.00 | 0.00 | 0.00 | 91 | 1020.4 |
| 20260902080224 | 63 | 238 | 4.0 | 8.0 | 0.00 | 0.00 | 0.00 | 91 | 1020.4 |
| 20260902075230 | 62 | 196 | 5.0 | 11.0 | 0.00 | 0.00 | 0.00 | 91 | 1020.4 |
| 20260902074734 | 62 | 216 | 5.0 | 11.0 | 0.00 | 0.00 | 0.00 | 91 | 1020.4 |
| 20260902074232 | 62 | 205 | 3.0 | 8.0 | 0.00 | 0.00 | 0.00 | 92 | 1020.4 |
| 20260902073734 | 62 | 199 | 3.0 | 7.0 | 0.00 | 0.00 | 0.00 | 92 | 1020.3 |
| 20260902073235 | 62 | 204 | 4.0 | 9.0 | 0.00 | 0.00 | 0.00 | 92 | 1020.1 |
| 20260902072727 | 61 | 232 | 4.0 | 9.0 | 0.00 | 0.00 | 0.00 | 92 | 1020.2 |
| 20260902072228 | 61 | 223 | 5.0 | 10.0 | 0.00 | 0.00 | 0.00 | 92 | 1020.1 |
| 20260902071728 | 61 | 201 | 5.0 | 11.0 | 0.00 | 0.00 | 0.00 | 92 | 1020.2 |
| 20260902071228 | 61 | 212 | 6.0 | 12.0 | 0.00 | 0.00 | 0.00 | 92 | 1020.1 |
| 20260902070728 | 61 | 251 | 5.0 | 12.0 | 0.00 | 0.00 | 0.00 | 92 | 1020.1 |
| 20260902070229 | 61 | 180 | 5.0 | 10.0 | 0.00 | 0.00 | 0.00 | 92 | 1020.2 |
| 20260902065726 | 61 | 184 | 5.0 | 10.0 | 0.00 | 0.00 | 0.00 | 92 | 1020.1 |
| 20260902065228 | 61 | 189 | 5.0 | 12.0 | 0.00 | 0.00 | 0.00 | 92 | 1020.0 |
| 20260902064730 | 61 | 219 | 5.0 | 12.0 | 0.00 | 0.00 | 0.00 | 92 | 1020.0 |
| 20260902064227 | 61 | 172 | 4.0 | 10.0 | 0.00 | 0.00 | 0.00 | 92 | 1020.0 |
| 20260902063730 | 61 | 181 | 4.0 | 9.0 | 0.00 | 0.00 | 0.00 | 92 | 1020.0 |
| 20260902063228 | 60 | 177 | 4.0 | 8.0 | 0.00 | 0.00 | 0.00 | 92 | 1020.1 |
| 20260902062733 | 60 | 197 | 3.0 | 6.0 | 0.00 | 0.00 | 0.00 | 93 | 1020.1 |
| 20260902062727 | 60 | 191 | 3.0 | 8.0 | 0.00 | 0.00 | 0.00 | 93 | 1020.1 |
| 20260902062209 | 60 | 199 | 3.0 | 7.0 | 0.00 | 0.00 | 0.00 | 93 | 1019.9 |
| 20260902061218 | 59 | 186 | 3.0 | 7.0 | 0.00 | 0.00 | 0.00 | 93 | 1020.0 |
| 20260902060718 | 59 | 174 | 4.0 | 8.0 | 0.00 | 0.00 | 0.00 | 93 | 1019.9 |
| 20260902060216 | 59 | 158 | 4.0 | 8.0 | 0.00 | 0.00 | 0.00 | 93 | 1019.7 |
| 20260902055714 | 59 | 147 | 4.0 | 8.0 | 0.00 | 0.00 | 0.00 | 93 | 1019.8 |
| 20260902055215 | 59 | 233 | 4.0 | 9.0 | 0.00 | 0.00 | 0.00 | 93 | 1020.0 |
| 20260902054714 | 58 | 191 | 4.0 | 9.0 | 0.00 | 0.00 | 0.00 | 93 | 1019.9 |
| 20260902054215 | 58 | 193 | 4.0 | 8.0 | 0.00 | 0.00 | 0.00 | 93 | 1019.9 |
| 20260902053715 | 58 | 191 | 4.0 | 8.0 | 0.00 | 0.00 | 0.00 | 93 | 1019.8 |
| 20260902053215 | 58 | 179 | 3.0 | 6.0 | 0.00 | 0.00 | 0.00 | 92 | 1019.9 |
| 20260902052715 | 58 | 185 | 3.0 | 6.0 | 0.00 | 0.00 | 0.00 | 92 | 1019.7 |
| 20260902052216 | 58 | 179 | 4.0 | 6.0 | 0.00 | 0.00 | 0.00 | 92 | 1019.6 |
| 20260902051712 | 58 | 166 | 4.0 | 9.0 | 0.00 | 0.00 | 0.00 | 92 | 1019.7 |
| 20260902051211 | 58 | 172 | 4.0 | 9.0 | 0.00 | 0.00 | 0.00 | 92 | 1019.8 |
| 20260902050713 | 58 | 177 | 3.0 | 9.0 | 0.00 | 0.00 | 0.00 | 92 | 1019.7 |
| 20260902050210 | 58 | 164 | 3.0 | 8.0 | 0.00 | 0.00 | 0.00 | 92 | 1019.6 |
| 20260902045711 | 58 | 173 | 4.0 | 8.0 | 0.00 | 0.00 | 0.00 | 92 | 1019.7 |
| 20260902045210 | 58 | 177 | 4.0 | 7.0 | 0.00 | 0.00 | 0.00 | 92 | 1019.6 |
| 20260902045153 | 58 | 186 | 3.0 | 7.0 | 0.00 | 0.00 | 0.00 | 92 | 1019.6 |
| 20260902044209 | 58 | 171 | 3.0 | 7.0 | 0.00 | 0.00 | 0.00 | 92 | 1019.6 |
| 20260902043710 | 58 | 208 | 4.0 | 8.0 | 0.00 | 0.00 | 0.00 | 92 | 1019.5 |
| 20260902043206 | 58 | 181 | 4.0 | 8.0 | 0.00 | 0.00 | 0.00 | 92 | 1019.6 |
| 20260902042707 | 58 | 202 | 3.0 | 7.0 | 0.00 | 0.00 | 0.00 | 92 | 1019.7 |
| 20260902042653 | 58 | 180 | 3.0 | 7.0 | 0.00 | 0.00 | 0.00 | 92 | 1019.5 |
| 20260902041706 | 58 | 179 | 4.0 | 8.0 | 0.00 | 0.00 | 0.00 | 92 | 1019.6 |
| 20260902041654 | 58 | 154 | 3.0 | 7.0 | 0.00 | 0.00 | 0.00 | 92 | 1019.5 |
| 20260902041417 | 58 | 162 | 4.0 | 8.0 | 0.00 | 0.00 | 0.00 | 92 | 1019.6 |
| 20260902040205 | 58 | 166 | 3.0 | 8.0 | 0.00 | 0.00 | 0.00 | 92 | 1019.5 |
| 20260902035710 | 58 | 177 | 4.0 | 8.0 | 0.00 | 0.00 | 0.00 | 92 | 1019.6 |
| 20260902035209 | 58 | 169 | 3.0 | 6.0 | 0.00 | 0.00 | 0.00 | 92 | 1019.7 |
| 20260902034706 | 58 | 168 | 3.0 | 6.0 | 0.00 | 0.00 | 0.00 | 92 | 1019.7 |
| 20260902034205 | 58 | 173 | 3.0 | 6.0 | 0.00 | 0.00 | 0.00 | 92 | 1019.8 |
| 20260902033705 | 58 | 163 | 3.0 | 7.0 | 0.00 | 0.00 | 0.00 | 92 | 1019.8 |
| 20260902033641 | 58 | 183 | 3.0 | 7.0 | 0.00 | 0.00 | 0.00 | 92 | 1019.8 |
| 20260902032704 | 58 | 175 | 3.0 | 6.0 | 0.00 | 0.00 | 0.00 | 92 | 1019.9 |
| 20260902032203 | 58 | 172 | 3.0 | 8.0 | 0.00 | 0.00 | 0.00 | 92 | 1019.9 |
| 20260902031708 | 58 | 184 | 3.0 | 8.0 | 0.00 | 0.00 | 0.00 | 92 | 1019.9 |
| 20260902031204 | 58 | 159 | 3.0 | 7.0 | 0.00 | 0.00 | 0.00 | 92 | 1020.0 |
| 20260902030706 | 58 | 171 | 3.0 | 8.0 | 0.00 | 0.00 | 0.00 | 92 | 1020.0 |
| 20260902030205 | 58 | 167 | 3.0 | 8.0 | 0.00 | 0.00 | 0.00 | 92 | 1020.1 |
| 20260902025706 | 58 | 196 | 3.0 | 6.0 | 0.00 | 0.00 | 0.00 | 92 | 1020.1 |
| 20260902025637 | 59 | 167 | 3.0 | 6.0 | 0.00 | 0.01 | 0.00 | 92 | 1020.1 |
| 20260902024708 | 59 | 170 | 3.0 | 5.0 | 0.00 | 0.01 | 0.00 | 92 | 1020.2 |
| 20260902024656 | 59 | 181 | 3.0 | 6.0 | 0.00 | 0.01 | 0.00 | 92 | 1020.1 |
| 20260902023705 | 59 | 181 | 3.0 | 6.0 | 0.00 | 0.01 | 0.00 | 92 | 1020.1 |
| 20260902023208 | 59 | 178 | 3.0 | 5.0 | 0.00 | 0.01 | 0.00 | 92 | 1020.1 |
| 20260902023148 | 59 | 167 | 2.0 | 5.0 | 0.00 | 0.01 | 0.00 | 92 | 1020.1 |
| 20260902022203 | 58 | 170 | 2.0 | 5.0 | 0.00 | 0.01 | 0.00 | 93 | 1020.1 |
| 20260902021703 | 58 | 189 | 3.0 | 6.0 | 0.00 | 0.01 | 0.00 | 93 | 1020.3 |
| 20260902021651 | 58 | 164 | 3.0 | 6.0 | 0.00 | 0.01 | 0.00 | 93 | 1020.2 |
| 20260902020704 | 58 | 154 | 2.0 | 4.0 | 0.00 | 0.01 | 0.00 | 93 | 1020.2 |
| 20260902020206 | 58 | 158 | 2.0 | 4.0 | 0.00 | 0.01 | 0.00 | 93 | 1020.4 |
| 20260902015706 | 58 | 168 | 3.0 | 5.0 | 0.00 | 0.01 | 0.00 | 93 | 1020.4 |
| 20260902015206 | 58 | 165 | 3.0 | 5.0 | 0.00 | 0.01 | 0.00 | 93 | 1020.5 |
| 20260902014705 | 58 | 180 | 2.0 | 5.0 | 0.00 | 0.01 | 0.00 | 93 | 1020.3 |
| 20260902014203 | 58 | 170 | 2.0 | 5.0 | 0.00 | 0.01 | 0.00 | 93 | 1020.4 |
| 20260902013704 | 58 | 166 | 3.0 | 5.0 | 0.00 | 0.01 | 0.00 | 93 | 1020.4 |
| 20260902013205 | 58 | 164 | 3.0 | 5.0 | 0.00 | 0.01 | 0.00 | 93 | 1020.3 |
| 20260902012704 | 58 | 175 | 2.0 | 5.0 | 0.00 | 0.01 | 0.00 | 93 | 1020.4 |
| 20260902012207 | 58 | 185 | 2.0 | 4.0 | 0.00 | 0.01 | 0.00 | 93 | 1020.3 |
| 20260902011702 | 58 | 174 | 2.0 | 4.0 | 0.00 | 0.01 | 0.00 | 93 | 1020.3 |
| 20260902011205 | 58 | 181 | 2.0 | 5.0 | 0.00 | 0.01 | 0.00 | 93 | 1020.4 |
| 20260902010700 | 58 | 185 | 2.0 | 5.0 | 0.00 | 0.01 | 0.00 | 93 | 1020.4 |
| 20260902010648 | 58 | 208 | 2.0 | 4.0 | 0.00 | 0.01 | 0.00 | 93 | 1020.5 |
| 20260902005649 | 58 | 175 | 2.0 | 4.0 | 0.00 | 0.01 | 0.00 | 93 | 1020.5 |
| 20260902005141 | 58 | 152 | 2.0 | 4.0 | 0.00 | 0.01 | 0.00 | 93 | 1020.5 |
| 20260902005129 | 58 | 202 | 2.0 | 4.0 | 0.00 | 0.01 | 0.00 | 93 | 1020.6 |
| 20260902004143 | 58 | 177 | 2.0 | 6.0 | 0.00 | 0.01 | 0.00 | 93 | 1020.6 |
| 20260902003642 | 57 | 182 | 3.0 | 6.0 | 0.00 | 0.01 | 0.00 | 93 | 1020.5 |
| 20260902003142 | 57 | 177 | 3.0 | 5.0 | 0.00 | 0.01 | 0.00 | 93 | 1020.6 |
| 20260902002644 | 57 | 167 | 3.0 | 5.0 | 0.00 | 0.01 | 0.00 | 93 | 1020.6 |
| 20260902002144 | 57 | 176 | 2.0 | 5.0 | 0.00 | 0.01 | 0.00 | 93 | 1020.6 |
| 20260902001642 | 57 | 170 | 2.0 | 5.0 | 0.00 | 0.01 | 0.00 | 93 | 1020.6 |
| 20260902001141 | 57 | 178 | 2.0 | 5.0 | 0.00 | 0.01 | 0.00 | 93 | 1020.7 |
| 20260902000640 | 57 | 171 | 2.0 | 4.0 | 0.00 | 0.01 | 0.00 | 92 | 1020.7 |
| 20260902000138 | 57 | 164 | 2.0 | 5.0 | 0.00 | 0.01 | 0.00 | 92 | 1020.7 |
| 20260901235636 | 57 | 164 | 2.0 | 5.0 | 0.00 | 0.01 | 0.00 | 92 | 1020.6 |
| 20260901235133 | 57 | 179 | 2.0 | 4.0 | 0.00 | 0.01 | 0.00 | 92 | 1020.6 |
| 20260901234635 | 57 | 189 | 1.0 | 3.0 | 0.00 | 0.01 | 0.00 | 91 | 1020.6 |
| 20260901234131 | 57 | 189 | 1.0 | 3.0 | 0.00 | 0.01 | 0.00 | 91 | 1020.6 |
| 20260901233831 | 57 | 189 | 0.0 | 3.0 | 0.00 | 0.01 | 0.00 | 91 | 1020.7 |
| 20260901233340 | 57 | 189 | 0.0 | 2.0 | 0.00 | 0.01 | 0.00 | 91 | 1020.7 |
| 20260901232131 | 57 | 189 | 1.0 | 3.0 | 0.00 | 0.01 | 0.00 | 91 | 1020.7 |
| 20260901231631 | 57 | 189 | 1.0 | 3.0 | 0.00 | 0.01 | 0.00 | 91 | 1020.8 |
| 20260901231131 | 57 | 189 | 0.0 | 2.0 | 0.00 | 0.01 | 0.00 | 91 | 1020.9 |
| 20260901230632 | 58 | 189 | 0.0 | 3.0 | 0.00 | 0.01 | 0.00 | 91 | 1021.0 |
| 20260901230132 | 58 | 189 | 1.0 | 3.0 | 0.00 | 0.01 | 0.00 | 90 | 1021.0 |
| 20260901225630 | 58 | 189 | 1.0 | 3.0 | 0.00 | 0.01 | 0.00 | 90 | 1021.0 |
| 20260901225132 | 58 | 189 | 1.0 | 3.0 | 0.00 | 0.01 | 0.00 | 90 | 1021.0 |
| 20260901224631 | 58 | 189 | 1.0 | 4.0 | 0.00 | 0.01 | 0.00 | 90 | 1021.1 |
| 20260901224131 | 58 | 189 | 1.0 | 4.0 | 0.00 | 0.01 | 0.00 | 90 | 1021.0 |
| 20260901223637 | 58 | 190 | 2.0 | 5.0 | 0.00 | 0.01 | 0.00 | 90 | 1020.9 |
| 20260901223132 | 58 | 190 | 2.0 | 5.0 | 0.00 | 0.02 | 0.00 | 90 | 1020.9 |
| 20260901223107 | 58 | 190 | 2.0 | 3.0 | 0.00 | 0.06 | 0.00 | 89 | 1021.0 |
| 20260901222133 | 58 | 193 | 1.0 | 3.0 | 0.00 | 0.14 | 0.00 | 89 | 1021.0 |
| 20260901221631 | 58 | 196 | 1.0 | 3.0 | 0.00 | 0.15 | 0.00 | 89 | 1021.0 |
| 20260901221133 | 58 | 190 | 1.0 | 3.0 | 0.00 | 0.15 | 0.00 | 89 | 1020.9 |
| 20260901221100 | 59 | 194 | 2.0 | 3.0 | 0.00 | 0.15 | 0.00 | 89 | 1021.0 |
| 20260901220835 | 58 | 194 | 2.0 | 3.0 | 0.00 | 0.15 | 0.00 | 89 | 1020.9 |
| 20260901215633 | 59 | 195 | 1.0 | 3.0 | 0.00 | 0.15 | 0.15 | 89 | 1020.9 |
| 20260901215132 | 59 | 194 | 2.0 | 3.0 | 0.00 | 0.15 | 0.15 | 89 | 1020.9 |
| 20260901214631 | 59 | 195 | 2.0 | 4.0 | 0.00 | 0.15 | 0.15 | 89 | 1020.9 |
| 20260901214133 | 59 | 219 | 2.0 | 4.0 | 0.00 | 0.15 | 0.15 | 89 | 1021.0 |
| 20260901214123 | 59 | 197 | 1.0 | 4.0 | 0.00 | 0.15 | 0.15 | 89 | 1021.0 |
| 20260901213132 | 59 | 197 | 1.0 | 2.0 | 0.00 | 0.15 | 0.15 | 89 | 1020.9 |
| 20260901212629 | 59 | 197 | 1.0 | 2.0 | 0.00 | 0.15 | 0.15 | 89 | 1020.8 |
| 20260901212131 | 59 | 202 | 1.0 | 2.0 | 0.00 | 0.15 | 0.15 | 89 | 1020.8 |
| 20260901211630 | 59 | 208 | 1.0 | 2.0 | 0.00 | 0.15 | 0.15 | 88 | 1021.1 |
| 20260901211130 | 59 | 213 | 0.0 | 2.0 | 0.00 | 0.15 | 0.15 | 88 | 1021.2 |
| 20260901210629 | 59 | 213 | 1.0 | 2.0 | 0.00 | 0.15 | 0.15 | 88 | 1021.3 |
| 20260901210130 | 59 | 213 | 1.0 | 4.0 | 0.00 | 0.15 | 0.15 | 88 | 1021.4 |
| 20260901205630 | 59 | 213 | 2.0 | 4.0 | 0.00 | 0.15 | 0.15 | 88 | 1021.4 |
| 20260901205127 | 59 | 232 | 2.0 | 3.0 | 0.00 | 0.15 | 0.15 | 87 | 1021.5 |
| 20260901204629 | 59 | 224 | 1.0 | 3.0 | 0.00 | 0.15 | 0.15 | 87 | 1021.5 |
| 20260901204128 | 59 | 202 | 1.0 | 2.0 | 0.00 | 0.15 | 0.15 | 87 | 1021.4 |
| 20260901203628 | 59 | 202 | 1.0 | 3.0 | 0.00 | 0.15 | 0.15 | 86 | 1021.4 |
| 20260901203128 | 59 | 202 | 1.0 | 3.0 | 0.00 | 0.15 | 0.15 | 86 | 1021.4 |
| 20260901202629 | 59 | 202 | 1.0 | 3.0 | 0.00 | 0.15 | 0.15 | 85 | 1021.4 |
| 20260901202326 | 59 | 202 | 1.0 | 3.0 | 0.00 | 0.15 | 0.15 | 85 | 1021.4 |
| 20260901201831 | 59 | 202 | 2.0 | 3.0 | 0.00 | 0.15 | 0.15 | 85 | 1021.3 |
| 20260901200625 | 59 | 202 | 2.0 | 3.0 | 0.00 | 0.15 | 0.15 | 84 | 1021.2 |
| 20260901200617 | 60 | 202 | 2.0 | 3.0 | 0.00 | 0.15 | 0.15 | 83 | 1021.4 |
| 20260901195625 | 60 | 202 | 2.0 | 3.0 | 0.00 | 0.15 | 0.15 | 83 | 1021.3 |
| 20260901195328 | 60 | 202 | 1.0 | 2.0 | 0.00 | 0.15 | 0.15 | 82 | 1021.3 |
| 20260901194837 | 60 | 202 | 1.0 | 3.0 | 0.00 | 0.15 | 0.15 | 81 | 1021.4 |
| 20260901193623 | 60 | 202 | 1.0 | 2.0 | 0.00 | 0.15 | 0.15 | 80 | 1021.1 |
| 20260901193120 | 61 | 202 | 1.0 | 2.0 | 0.00 | 0.15 | 0.15 | 79 | 1021.1 |
| 20260901192620 | 61 | 202 | 0.0 | 1.0 | 0.00 | 0.15 | 0.15 | 79 | 1021.0 |
| 20260901192605 | 62 | 202 | 0.0 | 3.0 | 0.00 | 0.15 | 0.15 | 78 | 1021.0 |
| 20260901191633 | 62 | 202 | 1.0 | 2.0 | 0.00 | 0.15 | 0.15 | 78 | 1021.0 |
| 20260901191618 | 62 | 202 | 1.0 | 3.0 | 0.00 | 0.15 | 0.15 | 78 | 1021.0 |
| 20260901190613 | 62 | 202 | 1.0 | 3.0 | 0.00 | 0.15 | 0.15 | 77 | 1021.1 |
| 20260901190543 | 63 | 202 | 1.0 | 3.0 | 0.00 | 0.15 | 0.15 | 76 | 1021.0 |
| 20260901185615 | 63 | 205 | 1.0 | 3.0 | 0.00 | 0.15 | 0.15 | 76 | 1021.0 |
| 20260901185112 | 63 | 202 | 2.0 | 3.0 | 0.00 | 0.15 | 0.15 | 76 | 1021.0 |
| 20260901184610 | 64 | 211 | 2.0 | 4.0 | 0.00 | 0.15 | 0.15 | 75 | 1021.0 |
| 20260901184109 | 64 | 210 | 2.0 | 4.0 | 0.00 | 0.15 | 0.15 | 75 | 1021.0 |
| 20260901183609 | 64 | 215 | 2.0 | 4.0 | 0.00 | 0.15 | 0.15 | 75 | 1021.0 |
| 20260901183111 | 65 | 239 | 1.0 | 4.0 | 0.00 | 0.15 | 0.15 | 74 | 1020.9 |
| 20260901182611 | 65 | 234 | 2.0 | 4.0 | 0.00 | 0.15 | 0.15 | 74 | 1020.8 |
| 20260901182110 | 65 | 229 | 2.0 | 7.0 | 0.00 | 0.15 | 0.15 | 73 | 1020.8 |
| 20260901181614 | 65 | 224 | 3.0 | 7.0 | 0.00 | 0.15 | 0.15 | 73 | 1020.8 |
| 20260901181111 | 65 | 191 | 3.0 | 9.0 | 0.00 | 0.15 | 0.15 | 73 | 1020.9 |
| 20260901180612 | 66 | 252 | 3.0 | 9.0 | 0.00 | 0.15 | 0.15 | 72 | 1020.9 |
| 20260901180113 | 66 | 265 | 3.0 | 7.0 | 0.00 | 0.15 | 0.15 | 72 | 1020.9 |
| 20260901175610 | 66 | 235 | 3.0 | 7.0 | 0.00 | 0.15 | 0.15 | 72 | 1020.8 |
| 20260901175112 | 66 | 294 | 3.0 | 7.0 | 0.00 | 0.15 | 0.15 | 71 | 1020.8 |
| 20260901174609 | 67 | 247 | 4.0 | 8.0 | 0.00 | 0.15 | 0.15 | 71 | 1020.8 |
| 20260901174552 | 67 | 229 | 4.0 | 8.0 | 0.00 | 0.15 | 0.15 | 70 | 1020.9 |
| 20260901173609 | 67 | 244 | 5.0 | 8.0 | 0.00 | 0.15 | 0.15 | 70 | 1020.8 |
| 20260901173112 | 67 | 227 | 4.0 | 11.0 | 0.00 | 0.15 | 0.15 | 70 | 1020.9 |
| 20260901172612 | 67 | 243 | 4.0 | 11.0 | 0.00 | 0.15 | 0.15 | 70 | 1021.0 |
| 20260901172108 | 68 | 270 | 4.0 | 9.0 | 0.00 | 0.15 | 0.15 | 70 | 1021.0 |
| 20260901171611 | 68 | 244 | 6.0 | 14.0 | 0.00 | 0.15 | 0.15 | 69 | 1021.0 |